• In Hungary
  • List of Countries
  • For 7 days
  • Water Temperature
  • Satellite Maps
  • Weather Map
  • News
  • Weather Widgets
  • user-avatar
    Login

    Hourly Weather Denton

    Today, 24 November, Friday

    Time Temperature Precipitation Wind Pressure Humidity
    00:00 +4°C° 0 mm 3 mps 745 mmHg 75%
    01:00 +3°C° 0 mm 3 mps 745 mmHg 76%
    02:00 +3°C° 0 mm 3 mps 745 mmHg 76%
    03:00 +4°C° 0 mm 2 mps 745 mmHg 76%
    04:00 +4°C° 0 mm 2 mps 746 mmHg 77%
    05:00 +3°C° 0 mm 2 mps 746 mmHg 77%
    06:00 +3°C° 0 mm 2 mps 746 mmHg 78%
    07:00 +3°C° 0 mm 2 mps 747 mmHg 78%
    08:00 +3°C° 0 mm 2 mps 747 mmHg 77%
    09:00 +3°C° 0 mm 2 mps 748 mmHg 77%
    10:00 +4°C° 0 mm 3 mps 748 mmHg 73%
    11:00 +5°C° 0 mm 3 mps 749 mmHg 68%
    12:00 +6°C° 0 mm 4 mps 749 mmHg 64%
    13:00 +5°C° 0 mm 3 mps 749 mmHg 65%
    14:00 +5°C° 0 mm 3 mps 749 mmHg 66%
    15:00 +6°C° 0 mm 2 mps 749 mmHg 68%
    16:00 +5°C° 0 mm 2 mps 749 mmHg 70%
    17:00 +3°C° 0 mm 3 mps 749 mmHg 73%
    18:00 +3°C° 0 mm 3 mps 749 mmHg 75%
    19:00 +3°C° 0.1 mm 2 mps 749 mmHg 76%
    20:00 +3°C° 0.1 mm 2 mps 750 mmHg 78%
    21:00 +3°C° 0.1 mm 2 mps 750 mmHg 79%
    22:00 +3°C° 0.1 mm 2 mps 750 mmHg 79%
    23:00 +3°C° 0.1 mm 2 mps 750 mmHg 79%

    Tomorrow, 25 November, Saturday

    Time Temperature Precipitation Wind Pressure Humidity
    00:00 +3°C° 0.1 mm 2 mps 750 mmHg 79%
    01:00 +3°C° 0 mm 2 mps 750 mmHg 78%
    02:00 +3°C° 0 mm 2 mps 750 mmHg 77%
    03:00 +3°C° 0 mm 2 mps 750 mmHg 75%
    04:00 +2°C° 0.2 mm 2 mps 750 mmHg 76%
    05:00 +2°C° 0.2 mm 2 mps 751 mmHg 76%
    06:00 +1°C° 0.2 mm 3 mps 751 mmHg 77%
    07:00 +1°C° 0.2 mm 3 mps 751 mmHg 76%
    08:00 +1°C° 0.2 mm 3 mps 752 mmHg 75%
    09:00 +2°C° 0.2 mm 3 mps 752 mmHg 75%
    10:00 +3°C° 0.1 mm 3 mps 752 mmHg 71%
    11:00 +3°C° 0.1 mm 4 mps 753 mmHg 67%
    12:00 +4°C° 0.1 mm 4 mps 753 mmHg 63%
    13:00 +4°C° 0.1 mm 4 mps 754 mmHg 65%
    14:00 +3°C° 0.1 mm 5 mps 754 mmHg 67%
    15:00 +2°C° 0.1 mm 5 mps 754 mmHg 69%
    16:00 +3°C° 0.1 mm 4 mps 755 mmHg 70%
    17:00 +1°C° 0.1 mm 4 mps 755 mmHg 72%
    18:00 +1°C° 0.1 mm 4 mps 756 mmHg 74%
    19:00 +1°C° 0.2 mm 4 mps 756 mmHg 75%
    20:00 +1°C° 0.2 mm 4 mps 756 mmHg 76%
    21:00 +1°C° 0.2 mm 4 mps 757 mmHg 76%
    22:00 +1°C° 0.2 mm 4 mps 757 mmHg 77%
    23:00 +1°C° 0.2 mm 4 mps 757 mmHg 77%

    Day after tomorrow, 26 November, Sunday

    Time Temperature Precipitation Wind Pressure Humidity
    00:00 +1°C° 0.2 mm 4 mps 757 mmHg 77%
    01:00 +1°C° 0.2 mm 5 mps 757 mmHg 77%
    02:00 +1°C° 0.2 mm 5 mps 758 mmHg 77%
    03:00 +1°C° 0.2 mm 5 mps 758 mmHg 77%
    04:00 +1°C° 0.2 mm 5 mps 758 mmHg 77%
    05:00 +1°C° 0.2 mm 4 mps 758 mmHg 77%
    06:00 +1°C° 0.2 mm 4 mps 758 mmHg 76%
    07:00 +1°C° 0.2 mm 4 mps 759 mmHg 76%
    08:00 +1°C° 0.2 mm 4 mps 759 mmHg 76%
    09:00 +1°C° 0.2 mm 4 mps 759 mmHg 76%
    10:00 +3°C° 0.1 mm 4 mps 760 mmHg 74%
    11:00 +3°C° 0.1 mm 5 mps 760 mmHg 72%
    12:00 +3°C° 0.1 mm 5 mps 760 mmHg 69%
    13:00 +3°C° 0.1 mm 5 mps 760 mmHg 71%
    14:00 +3°C° 0.1 mm 5 mps 760 mmHg 72%
    15:00 +4°C° 0.1 mm 4 mps 760 mmHg 74%
    16:00 +4°C° 0 mm 4 mps 760 mmHg 77%
    17:00 +3°C° 0 mm 4 mps 760 mmHg 79%
    18:00 +3°C° 0 mm 3 mps 760 mmHg 82%
    19:00 +3°C° 0.1 mm 4 mps 760 mmHg 83%
    20:00 +3°C° 0.1 mm 4 mps 759 mmHg 84%
    21:00 +4°C° 0.1 mm 4 mps 759 mmHg 85%
    22:00 +3°C° 0 mm 5 mps 758 mmHg 85%
    23:00 +3°C° 0 mm 5 mps 758 mmHg 85%

    27 November, Monday

    Time Temperature Precipitation Wind Pressure Humidity
    00:00 +3°C° 0 mm 6 mps 757 mmHg 85%
    01:00 +4°C° 0.6 mm 6 mps 756 mmHg 86%
    02:00 +4°C° 0.6 mm 7 mps 755 mmHg 87%
    03:00 +5°C° 0.6 mm 7 mps 755 mmHg 88%
    04:00 +5°C° 0.3 mm 7 mps 754 mmHg 87%
    05:00 +5°C° 0.3 mm 6 mps 754 mmHg 86%
    06:00 +7°C° 0.3 mm 6 mps 753 mmHg 85%
    07:00 +5°C° 0.1 mm 6 mps 754 mmHg 83%
    08:00 +6°C° 0.1 mm 5 mps 754 mmHg 81%
    09:00 +5°C° 0.1 mm 5 mps 754 mmHg 79%
    10:00 +5°C° 0 mm 6 mps 754 mmHg 76%
    11:00 +5°C° 0 mm 6 mps 754 mmHg 72%
    12:00 +5°C° 0 mm 6 mps 755 mmHg 69%
    13:00 +5°C° 0 mm 6 mps 754 mmHg 70%
    14:00 +6°C° 0 mm 5 mps 754 mmHg 70%
    15:00 +6°C° 0 mm 5 mps 754 mmHg 71%
    16:00 +5°C° 0.1 mm 5 mps 754 mmHg 75%
    17:00 +5°C° 0.1 mm 5 mps 754 mmHg 78%
    18:00 +5°C° 0.1 mm 5 mps 754 mmHg 82%
    19:00 +5°C° 0.1 mm 5 mps 753 mmHg 82%
    20:00 +5°C° 0.1 mm 5 mps 753 mmHg 83%
    21:00 +5°C° 0.1 mm 5 mps 753 mmHg 84%
    22:00 +4°C° 0.2 mm 6 mps 752 mmHg 83%
    23:00 +4°C° 0.2 mm 6 mps 751 mmHg 82%

    28 November, Tuesday

    Time Temperature Precipitation Wind Pressure Humidity
    00:00 +4°C° 0.2 mm 6 mps 750 mmHg 81%
    01:00 +4°C° 0.3 mm 7 mps 748 mmHg 82%
    02:00 +4°C° 0.3 mm 7 mps 747 mmHg 82%
    03:00 +4°C° 0.3 mm 8 mps 745 mmHg 82%
    04:00 +4°C° 1.6 mm 7 mps 744 mmHg 80%
    05:00 +4°C° 1.6 mm 7 mps 743 mmHg 77%
    06:00 +4°C° 1.6 mm 7 mps 742 mmHg 75%
    07:00 +4°C° 0.9 mm 6 mps 741 mmHg 77%
    08:00 +3°C° 0.9 mm 5 mps 741 mmHg 80%
    09:00 +4°C° 0.9 mm 4 mps 740 mmHg 82%
    10:00 +3°C° 0.8 mm 5 mps 740 mmHg 79%
    11:00 +3°C° 0.8 mm 5 mps 740 mmHg 75%
    12:00 +4°C° 0.8 mm 6 mps 741 mmHg 71%
    13:00 +4°C° 0 mm 6 mps 741 mmHg 73%
    14:00 +4°C° 0 mm 6 mps 741 mmHg 76%
    15:00 +5°C° 0 mm 5 mps 741 mmHg 78%
    16:00 +5°C° 0 mm 5 mps 742 mmHg 80%
    17:00 +5°C° 0 mm 5 mps 742 mmHg 82%
    18:00 +3°C° 0 mm 5 mps 743 mmHg 83%
    19:00 +3°C° 0.1 mm 5 mps 743 mmHg 83%
    20:00 +3°C° 0.1 mm 5 mps 743 mmHg 83%
    21:00 +3°C° 0.1 mm 5 mps 744 mmHg 82%
    22:00 +3°C° 0.2 mm 5 mps 744 mmHg 82%
    23:00 +4°C° 0.2 mm 4 mps 744 mmHg 82%

    29 November, Wednesday

    Time Temperature Precipitation Wind Pressure Humidity
    00:00 +3°C° 0.2 mm 4 mps 745 mmHg 82%
    01:00 +2°C° 0.2 mm 5 mps 745 mmHg 81%
    02:00 +2°C° 0.2 mm 5 mps 745 mmHg 80%
    03:00 +2°C° 0.2 mm 5 mps 746 mmHg 80%
    04:00 +2°C° 0 mm 5 mps 746 mmHg 79%
    05:00 +1°C° 0 mm 5 mps 746 mmHg 78%
    06:00 +1°C° 0 mm 5 mps 747 mmHg 77%
    07:00 +1°C° 0 mm 5 mps 747 mmHg 78%
    08:00 +1°C° 0 mm 5 mps 747 mmHg 79%
    09:00 +1°C° 0 mm 5 mps 748 mmHg 80%
    10:00 +2°C° 0 mm 5 mps 748 mmHg 78%
    11:00 +3°C° 0 mm 5 mps 748 mmHg 76%
    12:00 +3°C° 0 mm 6 mps 749 mmHg 74%
    13:00 +3°C° 0 mm 5 mps 749 mmHg 75%
    14:00 +3°C° 0 mm 5 mps 750 mmHg 76%
    15:00 +3°C° 0 mm 5 mps 750 mmHg 76%
    16:00 +3°C° 0 mm 4 mps 750 mmHg 78%
    17:00 +3°C° 0 mm 4 mps 751 mmHg 79%
    18:00 +1°C° 0 mm 4 mps 752 mmHg 81%
    19:00 +1°C° 0 mm 4 mps 752 mmHg 81%
    20:00 0°C° 0 mm 4 mps 752 mmHg 81%
    21:00 0°C° 0 mm 4 mps 753 mmHg 81%
    22:00 +1°C° 0 mm 3 mps 753 mmHg 81%
    23:00 +1°C° 0 mm 3 mps 753 mmHg 81%
    Show more